Location: Shenandoah County Park
(38.9356°N, 78.4524°W)
Time: 16:09:30
(UTC-05:00)

Hubble Space Telescope - Visible Passes

Search period start: 01 December 2021 00:00
Search period end: 11 December 2021 00:00
Orbit: 534 x 538 km, 28.5° (Epoch: 01 December)

Date Brightness Start Highest point End Pass type
(mag) Time Alt. Az. Time Alt. Az. Time Alt. Az.
01 Dec 2.8 05:25:24 15° SSW 05:26:14 16° S 05:28:50 10° SSE visible
02 Dec 3.0 05:14:56 15° SSW 05:14:59 15° SSW 05:17:19 10° SSE visible
03 Dec 3.2 05:04:28 13° S 05:04:28 13° S 05:05:41 10° SSE visible
